| time (UTC) | temp F | wind direction | speed MPH | gust MPH | rain 1hr in | rain 24hr in | rain mn in | humidity % | barometer mb |
| 20260901011601 | 67 | 46 | 1.0 | 3.0 | 0.06 | 0.52 | 0.52 | 94 | 1017.3 |
| 20260901011502 | 67 | 121 | 1.0 | 2.0 | 0.06 | 0.52 | 0.52 | 94 | 1017.3 |
| 20260901010031 | 67 | 140 | 1.0 | 4.0 | 0.06 | 0.51 | 0.51 | 94 | 1017.3 |
| 20260901004541 | 67 | 269 | 1.0 | 2.0 | 0.06 | 0.50 | 0.50 | 94 | 1017.2 |
| 20260901003027 | 67 | 145 | 0.0 | 2.0 | 0.04 | 0.47 | 0.47 | 94 | 1017.1 |
| 20260901001511 | 67 | 314 | 2.0 | 5.0 | 0.04 | 0.46 | 0.46 | 94 | 1016.9 |
| 20260901000049 | 67 | 145 | 1.0 | 3.0 | 0.04 | 0.45 | 0.45 | 94 | 1016.8 |
| 20260831234526 | 67 | 135 | 1.0 | 2.0 | 0.04 | 0.44 | 0.44 | 94 | 1016.8 |
| 20260831233043 | 67 | 124 | 1.0 | 3.0 | 0.03 | 0.43 | 0.43 | 94 | 1016.9 |
| 20260831231503 | 67 | 145 | 1.0 | 4.0 | 0.02 | 0.42 | 0.42 | 94 | 1017.1 |
| 20260831230026 | 67 | 135 | 0.0 | 2.0 | 0.02 | 0.41 | 0.41 | 94 | 1017.2 |
| 20260831224543 | 67 | 127 | 0.0 | 3.0 | 0.01 | 0.40 | 0.40 | 94 | 1017.2 |
| 20260831223003 | 67 | 135 | 1.0 | 2.0 | 0.02 | 0.40 | 0.40 | 94 | 1017.3 |
| 20260831221521 | 67 | 152 | 1.0 | 3.0 | 0.09 | 0.40 | 0.40 | 94 | 1017.5 |
| 20260831220043 | 67 | 46 | 1.0 | 3.0 | 0.11 | 0.39 | 0.39 | 94 | 1017.7 |
| 20260831214505 | 67 | 178 | 1.0 | 3.0 | 0.12 | 0.39 | 0.39 | 94 | 1017.8 |
| 20260831213050 | 67 | 117 | 1.0 | 4.0 | 0.11 | 0.38 | 0.38 | 94 | 1017.9 |
| 20260831211527 | 67 | 156 | 1.0 | 3.0 | 0.07 | 0.31 | 0.32 | 94 | 1018.1 |
| 20260831210114 | 67 | 117 | 2.0 | 3.0 | 0.05 | 0.28 | 0.28 | 94 | 1017.9 |
| 20260831210001 | 67 | 140 | 1.0 | 3.0 | 0.05 | 0.28 | 0.28 | 94 | 1017.9 |
| 20260831204529 | 67 | 1 | 0.0 | 3.0 | 0.05 | 0.27 | 0.27 | 94 | 1018.2 |
| 20260831203059 | 67 | 178 | 2.0 | 4.0 | 0.05 | 0.27 | 0.27 | 94 | 1018.0 |
| 20260831201507 | 67 | 138 | 2.0 | 5.0 | 0.03 | 0.24 | 0.24 | 93 | 1017.9 |
| 20260831200034 | 67 | 105 | 0.0 | 7.0 | 0.06 | 0.23 | 0.23 | 94 | 1018.0 |
| 20260831194555 | 67 | 161 | 3.0 | 7.0 | 0.06 | 0.22 | 0.22 | 94 | 1018.1 |
| 20260831193021 | 67 | 295 | 1.0 | 5.0 | 0.07 | 0.22 | 0.22 | 94 | 1018.3 |
| 20260831191551 | 66 | 178 | 2.0 | 7.0 | 0.06 | 0.21 | 0.21 | 94 | 1018.4 |
| 20260831190108 | 66 | 135 | 2.0 | 8.0 | 0.03 | 0.17 | 0.18 | 93 | 1018.4 |
| 20260831190001 | 66 | 147 | 2.0 | 8.0 | 0.03 | 0.17 | 0.17 | 93 | 1018.4 |
| 20260831184527 | 66 | 117 | 3.0 | 7.0 | 0.02 | 0.16 | 0.16 | 93 | 1018.4 |
| 20260831183021 | 66 | 186 | 2.0 | 8.0 | 0.01 | 0.15 | 0.15 | 93 | 1018.6 |
| 20260831181559 | 66 | 178 | 2.0 | 7.0 | 0.01 | 0.15 | 0.15 | 93 | 1018.7 |
| 20260831180029 | 66 | 161 | 3.0 | 7.0 | 0.00 | 0.14 | 0.14 | 93 | 1019.0 |
| 20260831174547 | 66 | 168 | 4.0 | 8.0 | 0.01 | 0.14 | 0.14 | 93 | 1019.1 |
| 20260831173007 | 66 | 178 | 2.0 | 7.0 | 0.03 | 0.14 | 0.14 | 93 | 1019.3 |
| 20260831171529 | 66 | 147 | 2.0 | 8.0 | 0.04 | 0.14 | 0.14 | 93 | 1019.5 |
| 20260831170046 | 66 | 188 | 3.0 | 8.0 | 0.06 | 0.14 | 0.14 | 93 | 1019.5 |
| 20260831164504 | 65 | 150 | 3.0 | 8.0 | 0.10 | 0.13 | 0.13 | 93 | 1019.6 |
| 20260831163026 | 65 | 145 | 2.0 | 9.0 | 0.11 | 0.11 | 0.11 | 92 | 1019.7 |
| 20260831161544 | 65 | 110 | 5.0 | 9.0 | 0.10 | 0.10 | 0.10 | 92 | 1019.7 |
| 20260831160006 | 65 | 152 | 2.0 | 11.0 | 0.08 | 0.08 | 0.08 | 91 | 1019.9 |
| 20260831154526 | 65 | 161 | 3.0 | 10.0 | 0.03 | 0.03 | 0.03 | 90 | 1019.9 |
| 20260831153017 | 65 | 138 | 3.0 | 9.0 | 0.00 | 0.00 | 0.00 | 89 | 1020.1 |
| 20260831151558 | 66 | 135 | 4.0 | 9.0 | 0.00 | 0.00 | 0.00 | 89 | 1020.0 |
| 20260831151502 | 66 | 161 | 3.0 | 10.0 | 0.00 | 0.00 | 0.00 | 89 | 1020.0 |
| 20260831150039 | 66 | 190 | 6.0 | 11.0 | 0.00 | 0.00 | 0.00 | 88 | 1019.8 |
| 20260831144507 | 66 | 157 | 3.0 | 11.0 | 0.00 | 0.00 | 0.00 | 89 | 1019.7 |
| 20260831143030 | 66 | 138 | 5.0 | 13.0 | 0.00 | 0.00 | 0.00 | 90 | 1019.7 |
| 20260831141558 | 66 | 144 | 5.0 | 14.0 | 0.00 | 0.00 | 0.00 | 90 | 1019.7 |
| 20260831140016 | 65 | 136 | 5.0 | 11.0 | 0.00 | 0.00 | 0.00 | 91 | 1019.6 |
| 20260831134553 | 65 | 152 | 6.0 | 18.0 | 0.00 | 0.00 | 0.00 | 93 | 1019.7 |
| 20260831133035 | 65 | 173 | 4.0 | 11.0 | 0.00 | 0.00 | 0.00 | 95 | 1019.6 |
| 20260831131548 | 64 | 138 | 5.0 | 10.0 | 0.00 | 0.00 | 0.00 | 95 | 1019.8 |
| 20260831130015 | 64 | 152 | 5.0 | 9.0 | 0.00 | 0.00 | 0.00 | 95 | 1019.8 |
| 20260831124549 | 63 | 143 | 2.0 | 5.0 | 0.00 | 0.00 | 0.00 | 96 | 1020.0 |
| 20260831123055 | 62 | 135 | 1.0 | 7.0 | 0.00 | 0.00 | 0.00 | 96 | 1020.1 |
| 20260831121524 | 61 | 161 | 1.0 | 3.0 | 0.00 | 0.00 | 0.00 | 95 | 1019.9 |
| 20260831120048 | 60 | 314 | 1.0 | 3.0 | 0.00 | 0.00 | 0.00 | 94 | 1019.9 |
| 20260831114504 | 60 | 46 | 1.0 | 3.0 | 0.00 | 0.00 | 0.00 | 94 | 1020.0 |
| 20260831113030 | 60 | 35 | 2.0 | 3.0 | 0.00 | 0.00 | 0.00 | 94 | 1020.1 |
| 20260831111507 | 59 | 269 | 1.0 | 3.0 | 0.00 | 0.00 | 0.00 | 94 | 1020.0 |
| 20260831110055 | 59 | 314 | 1.0 | 3.0 | 0.00 | 0.00 | 0.00 | 94 | 1019.9 |
| 20260831104557 | 59 | 331 | 3.0 | 5.0 | 0.00 | 0.00 | 0.00 | 94 | 1019.8 |
| 20260831103028 | 58 | 28 | 1.0 | 3.0 | 0.00 | 0.00 | 0.00 | 94 | 1019.6 |
| 20260831101550 | 58 | 56 | 1.0 | 5.0 | 0.00 | 0.00 | 0.00 | 94 | 1019.4 |
| 20260831100006 | 58 | 59 | 1.0 | 4.0 | 0.00 | 0.00 | 0.00 | 94 | 1019.5 |
| 20260831094529 | 58 | 28 | 1.0 | 3.0 | 0.00 | 0.00 | 0.00 | 94 | 1019.6 |
| 20260831093050 | 58 | 295 | 1.0 | 2.0 | 0.00 | 0.00 | 0.00 | 94 | 1019.6 |
| 20260831091507 | 57 | 135 | 1.0 | 3.0 | 0.00 | 0.00 | 0.00 | 94 | 1019.6 |
| 20260831090029 | 57 | 72 | 1.0 | 3.0 | 0.00 | 0.00 | 0.00 | 93 | 1019.7 |
| 20260831084547 | 57 | 9 | 3.0 | 5.0 | 0.00 | 0.00 | 0.00 | 93 | 1019.6 |
| 20260831083009 | 57 | 32 | 2.0 | 4.0 | 0.00 | 0.00 | 0.00 | 93 | 1019.6 |
| 20260831081541 | 56 | 15 | 2.0 | 4.0 | 0.00 | 0.00 | 0.00 | 93 | 1019.5 |
| 20260831080028 | 56 | 40 | 2.0 | 5.0 | 0.00 | 0.00 | 0.00 | 93 | 1019.6 |
| 20260831074508 | 56 | 56 | 2.0 | 4.0 | 0.00 | 0.00 | 0.00 | 92 | 1019.5 |
| 20260831073048 | 57 | 23 | 2.0 | 5.0 | 0.00 | 0.00 | 0.00 | 92 | 1019.6 |
| 20260831071554 | 57 | 63 | 1.0 | 3.0 | 0.00 | 0.00 | 0.00 | 93 | 1019.7 |
| 20260831070030 | 57 | 321 | 2.0 | 3.0 | 0.00 | 0.00 | 0.00 | 92 | 1019.7 |
| 20260831064545 | 57 | 35 | 2.0 | 3.0 | 0.00 | 0.00 | 0.00 | 92 | 1019.6 |
| 20260831063006 | 57 | 39 | 2.0 | 4.0 | 0.00 | 0.00 | 0.00 | 92 | 1019.4 |
| 20260831061533 | 58 | 79 | 1.0 | 3.0 | 0.00 | 0.00 | 0.00 | 92 | 1019.7 |
| 20260831060046 | 58 | 89 | 1.0 | 3.0 | 0.00 | 0.00 | 0.00 | 92 | 1019.8 |
| 20260831054520 | 59 | 32 | 2.0 | 4.0 | 0.00 | 0.00 | 0.00 | 92 | 1019.9 |
| 20260831053040 | 59 | 1 | 2.0 | 4.0 | 0.00 | 0.00 | 0.00 | 92 | 1020.2 |
| 20260831051519 | 59 | 56 | 2.0 | 4.0 | 0.00 | 0.00 | 0.00 | 91 | 1020.2 |
| 20260831050111 | 59 | 1 | 2.0 | 4.0 | 0.00 | 0.00 | 0.00 | 91 | 1020.1 |
| 20260831044557 | 60 | 20 | 2.0 | 3.0 | 0.00 | 0.00 | 0.00 | 91 | 1020.1 |
| 20260831043008 | 60 | 15 | 1.0 | 4.0 | 0.00 | 0.00 | 0.00 | 91 | 1020.3 |
| 20260831041530 | 61 | 20 | 2.0 | 4.0 | 0.00 | 0.00 | 0.00 | 91 | 1020.1 |
| 20260831040042 | 61 | 56 | 1.0 | 4.0 | 0.00 | 0.00 | 0.00 | 91 | 1020.3 |
| 20260831034521 | 62 | 296 | 2.0 | 3.0 | 0.00 | 0.00 | 0.00 | 91 | 1020.1 |
| 20260831033011 | 62 | 314 | 1.0 | 3.0 | 0.00 | 0.00 | 0.00 | 90 | 1020.1 |
| 20260831031555 | 62 | 331 | 1.0 | 2.0 | 0.00 | 0.00 | 0.00 | 91 | 1020.0 |
| 20260831030031 | 63 | 46 | 1.0 | 2.0 | 0.00 | 0.00 | 0.00 | 90 | 1020.3 |
| 20260831024613 | 63 | 28 | 1.0 | 2.0 | 0.00 | 0.00 | 0.00 | 90 | 1020.4 |
| 20260831023025 | 63 | 135 | 1.0 | 3.0 | 0.00 | 0.00 | 0.00 | 90 | 1020.1 |
| 20260831021545 | 63 | 331 | 2.0 | 5.0 | 0.00 | 0.00 | 0.00 | 90 | 1020.1 |
| 20260831020009 | 63 | 327 | 2.0 | 4.0 | 0.00 | 0.00 | 0.00 | 90 | 1020.3 |
| 20260831014540 | 64 | 39 | 1.0 | 3.0 | 0.00 | 0.00 | 0.00 | 90 | 1020.1 |
| 20260831013058 | 64 | 241 | 1.0 | 3.0 | 0.00 | 0.00 | 0.00 | 90 | 1020.1 |